www.pogodaiklimat.ru
ПОГОДА на Базе ВВС Дэвис-Монтан
Время
и дата
13:58 04.07
14:40 04.07
14:58 04.07
15:08 04.07
15:58 04.07
16:58 04.07
17:58 04.07
18:58 04.07
19:58 04.07
20:58 04.07
21:58 04.07
22:58 04.07
23:58 04.07
00:58 05.07
01:58 05.07
02:58 05.07
03:58 05.07
04:58 05.07
05:58 05.07
06:58 05.07
07:58 05.07
08:58 05.07
09:58 05.07
10:58 05.07
11:58 05.07
12:58 05.07
13:58 05.07
14:58 05.07
15:58 05.07
16:58 05.07
17:58 05.07
18:58 05.07
19:58 05.07
20:58 05.07
21:58 05.07
22:58 05.07
23:58 05.07
00:58 06.07
01:58 06.07
02:58 06.07
03:58 06.07
04:58 06.07
05:58 06.07
06:58 06.07
07:58 06.07
08:58 06.07
09:58 06.07
10:58 06.07
Ветер
(напр.,м/с)
Видим. Явления Облачность Т
(С)
Тd
(С)
f
(%)
Тe
(С)
Тes
(С)
Комфортность P
(гПа)
Po
(гПа)
Тmin
(С)
Tmax
(С)
R
(мм)
R24
(мм)
S
(см)
ЮВ 2 16 км 8/0 3000 м
[Ac]
+32.1 +15.1 36 +34 +41 душно 1008.2 917.6
Ю 3 16 км слабая морось 8/0 3600 м
[Ac]
+32.0 +17.0 41 +36 +39 очень
душно
1008.5 917.9
Ю 2 16 км слабый дождь 8/0 3000 м
[Ac]
+29.1 +19.4 56 +35 +39 очень
душно
1008.5 917.6
Ю 2 16 км 5/0 3000 м
[Ac]
+29.0 +19.0 55 +34 +39 очень
душно
1008.3 917.6
ЮЗ 2 16 км 2/0 4500 м
[Ac]
+30.0 +18.1 49 +35 +43 очень
душно
1008.7 917.9
ЮВ 2 16 км 10/0 4200 м
[Ac]
+30.3 +17.0 45 +34 +36 очень
душно
1008.2 917.3 +29.0 +33.7 0.3
ЮВ 1 16 км 2/0 5400 м
[Ac]
+32.0 +16.3 39 +35 +39 очень
душно
1007.7 917.0
ЮВ 1 16 км 5/0 5100 м
[Ac]
+32.5 +16.3 38 +35 +37 душно 1007.7 917.3
ЮВ 1 16 км 5/0 2250 м
[Ac]
+30.4 +17.4 46 +34 +35 очень
душно
1007.8 917.3
Ю 2 16 км 5/0 3600 м
[Ac]
+29.2 +16.4 46 +33 +33 очень
душно
1008.5 917.9
Ю 1 16 км 8/0 2400 м
[Ac]
+28.1 +17.3 52 +32 +32 душно 1009.2 918.5
ЮЗ 2 16 км 5/0 2100 м
[Ac]
+28.2 +16.4 49 +32 +32 душно 1009.4 918.8 +27.6 +32.5
ЮЗ 1 16 км 2/0 2100 м
[Ac]
+27.2 +17.6 56 +31 +31 душно 1009.4 918.8
Ю 1 16 км 10/0 2100 м
[Ac]
+26.9 +17.9 58 +31 +31 душно 1009.7 919.1
ЮВ 1 16 км ясно +25.5 +18.4 65 +30 +30 душно 1009.6 918.8
В 1 16 км ясно +25.6 +18.5 65 +30 +30 душно 1009.4 918.5
ЮВ 2 16 км ясно +24.3 +18.5 70 +29 +29 душно 1010.2 919.1
Ю 1 16 км 2/0 2700 м
[Ac]
+23.8 +18.9 74 +29 +29 душно 1010.2 919.1 +23.8 +28.2 0.3
ЮВ 1 16 км ясно +23.5 +18.8 75 +28 +28 душно 1010.4 919.4
ЮВ 1 16 км ясно +26.7 +17.7 58 +31 +31 душно 1010.4 919.7
В 2 16 км н/о +28.4 +17.3 51 +32 +32 душно 1010.6 919.7
ЮВ 1 16 км ясно +29.5 +16.6 46 +33 +39 душно 1010.4 919.7
З 1 16 км ясно +30.9 +15.3 39 +33 +44 душно 1010.1 919.4
Ю 1 16 км ясно +32.5 +14.1 33 +34 +50 очень
жарко
1009.6 919.1 +23.4 +32.5
ЮЗ 2 16 км 5/0 2100 м
[Ac]
+33.0 +14.5 33 +35 +43 душно 1009.4 918.8
З 1
{4}
16 км ясно +35.1 +9.5 21 +34 +52 опасность
солнечного
удара
1008.6 918.2
ЮЗ 2
{4}
16 км ясно +35.3 +9.6 21 +34 +45 очень
жарко
1008.4 917.9
ЮЗ 1 16 км 8/0 3000 м
[Ac]
+35.1 +10.2 22 +34 +41 очень
жарко
1007.7 917.3
ЮЗ 1 16 км 8/0 3000 м
[Ac]
+35.2 +10.2 22 +34 +40 очень
жарко
1007.0 916.7
Ю 2
{4}
16 км ясно +36.0 +8.7 19 +34 +41 очень
жарко
1006.6 916.4 +32.4 +36.3
ЮЗ 2 16 км ясно +35.5 +7.5 18 +34 +36 очень
жарко
1006.3 916.1
ЮЗ 3
{4}
16 км ясно +34.3 +7.3 19 +32 +33 жарко 1006.6 916.4
Ю 2 16 км ясно +32.5 +5.9 19 +30 +31 жарко 1007.2 917.0
Ю 1 16 км ясно +30.7 +6.5 22 +29 +29 жарко 1008.0 917.6
Ю 1 16 км ясно +29.5 +8.0 26 +29 +29 жарко 1008.6 918.2
штиль 0 16 км ясно +27.9 +7.7 28 +27 +27 жарко 1009.4 918.8 +27.9 +36.1
штиль 0 16 км ясно +26.7 +10.0 35 +27 +27 жарко 1009.7 919.1
штиль 0 16 км ясно +25.9 +11.6 41 +27 +27 жарко 1009.6 919.1
Ю 1 16 км ясно +24.7 +10.9 42 +26 +26 жарко 1009.7 919.1
ЮВ 1 16 км ясно +24.1 +11.4 45 +26 +26 жарко 1009.7 919.1
ЮВ 2 16 км ясно +22.6 +11.3 49 +25 +25 комфорт 1010.2 919.4
ЮВ 2 16 км ясно +21.3 +12.2 56 +23 +23 комфорт 1010.6 919.7 +21.3 +28.1
ЮВ 2 16 км ясно +22.0 +11.1 50 +24 +24 комфорт 1011.3 920.4
Ю 1 16 км ясно +25.1 +10.5 40 +26 +26 жарко 1011.5 920.7
ЮВ 1 16 км ясно +27.7 +9.9 33 +28 +30 жарко 1011.8 921.0
ЮВ 1 16 км ясно +30.7 +9.0 26 +30 +36 жарко 1011.7 921.0
штиль 0 16 км ясно +32.3 +7.8 22 +31 +46 жарко 1011.3 920.7
штиль 0 16 км ясно +33.3 +7.3 20 +32 +53 опасность
солнечного
удара
1011.0 920.4 +21.2 +33.3
Местоположение метеостанции Davis-Monthan Air Force Base: широта 32.1667 долгота -110.8833 высота над уровнем моря 824 м.
В архиве по умолчанию представлена погода на Базе ВВС Дэвис-Монтан за последние 1-2 суток. Обновление информации о фактической погоде в базе происходит ежечасно! Архивные данные за месяц целиком и за предыдущие месяцы Вы можете получить, выбрав интересующий диапазон дат из раскрывающегося списка и нажав кнопку "Ввод!".
Внимание! Архив погоды МЕТАР в базе сайта по станциям, не включенным в климатический монитор, хранится не более 60 дней. Нет смысла пытаться выбрать более раннюю дату.
*Определитесь, кто Вы:
Внимание! Время в таблицах - местное (без учета летнего времени). Для получения всемирного времени необходимо вычесть поправку, которая равна -7 ч.
Смотрите также архив погоды в соседних городах и на ближайших метеорологических станциях:
Партнеры нашего сайта:      
Пояснения к столбцам:
  • Ветер - указаны скорость ветра в м/с - средняя за 10 мин, порывы в срок и между сроками (в фигурных скобках) и направление, откуда дует ветер: С - северный,
  • СВ - северо-восточный, В - восточный, ЮВ - юго-восточный, Ю - южный, ЮЗ - юго-западный, З - западный, СЗ - северо-западный.
  • Видимость - горизонтальная дальность видимости в метрах или километрах. При видимости от 1 до 10 км при отсутствии осадков обычно наблюдается дымка, при ухудшении видимости до 1 км и менее - туман. В сухую погоду видимость может ухудшаться дымом, пылью или мглою.
  • Явления - указаны атмосферные явления, наблюдавшиеся в срок или в последний час перед сроком; фигурными скобками обозначены явления, наблюдавшиеся между сроками (за 1-3 часа до срока); квадратными скобками обозначены град или гололедные отложения с указанием их диаметра в мм.
  • Облачность - указаны через наклонную черту общая и нижняя облачность в баллах и высота нижней границы облаков в метрах; квадратными скобками обозначены формы облаков: Ci - перистые, Cs - перисто-слоистые, Cc - перисто-кучевые, Ac - высококучевые, As - высокослоистые, Sc - слоисто-кучевые, Ns - слоисто-дождевые, Cu - кучевые, Cb - кучево-дождевые. Подробнее классификацию облаков см. в Атласе облаков (PDF).
  • T - Температура воздуха - температура, измеренная на высоте 2 м над землей.
  • Td - Температура точки росы - температура, при понижении до которой содержащийся в воздухе водяной пар достигнет насыщения.
  • f - Относительная влажность воздуха - влажноcть воздуха, измеренная на высоте 2 м над землей.
  • Te - Эффективная температура - температура, которую ощущает одетый по сезону человек в тени. Характеристика душности погоды. При расчете учитывается влияние влажности воздуха и скорости ветра на теплоощущения человека.
  • Tes - Эффективная температура на солнце - температура, которую ощущает человек, с поправкой на солнечный нагрев. Характеристика знойности погоды. Зависит от высоты солнца над горизонтом, облачности и скорости ветра. Ночью, в пасмурную погоду, а также при ветре 12 м/с и более поправка равна нулю.
  • P - Атмосферное давление - приведенное к уровню моря атмосферное давление.
  • Po - Атмосферное давление - измеренное на уровне метеостанции атмосферное давление.
  • Tmin - Минимальная температура - минимум температуры воздуха на высоте 2 м над землей.
  • Tmax - Максимальная температура - максимум температуры воздуха на высоте 2 м над землей.
  • R - Количество осадков - Количество выпавших осадков за период времени, мм. При наведении курсора мыши на число - период времени, за который выпало указанное количество осадков.
  • R24 - Количество осадков - Количество выпавших осадков за 24 часа, мм.
  • S - Снежный покров - Высота снежного покрова, см. При наведении курсора мыши на число - состояние снежного покрова и степень покрытия местности в баллах.